Location: Cornospital
(48.0620°N, 3.3837°W)
Time: 20:52:41
(UTC+00:00)

ATLAS CENTAUR R/B - Pass Details

Date: 17 June 2021
Orbit: 472 x 671 km, 64.6° (Epoch: 13 June)

Event Time Altitude Azimuth Distance (km) Brightness Sun altitude
Rises 23:17:14 0° 311° (NW) 2,810 5.9 -17.4°
Reaches altitude 10° 23:19:46 10° 297° (WNW) 1,942 4.6 -17.5°
Maximum altitude 23:23:14 23° 245° (WSW) 1,318 3.1 -17.6°
Enters shadow 23:24:30 21° 220° (SW) 1,430 3.1 -17.7°
